User: anonymous   Login
Location: Unspecified
(0.0000°N, 0.0000°E)
Time: 23:51:39
(UTC+00:00)
Language:

STARLINK-34989 - Orbit

View from above orbital plane
View from above orbital plane
View from above satellite
View from above satellite

Ground track
Ground track

The orbit is defined by the following mean orbital elements,

1 65251U          26145.12862588 +.00000000 +00000-0 +13202-3 0 00001
2 65251  97.4462 187.9958 0001268 103.2746 256.8622 15.05657215    08
Epoch (UTC): 25 May 2026 03:05:13
Eccentricity: 0.0001268
inclination: 97.4462°
perigee height: 549 km
apogee height: 550 km
right ascension of ascending node: 187.9958°
argument of perigee: 103.2746°
revolutions per day: 15.05657215
mean anomaly at epoch: 256.8622°

The dashed part of the orbit path shows where the satellite is in the earth's shadow,  

DLR